This is the latest recevied weather packets stored in our database for station/object KC5DAQ-28. If no packets are shown the sender has not sent any weather packets the latest 10 day(s).
| Time | Temp. | Humidity | Pressure | Rain* | Wind** | Luminosity | Snow |
|---|---|---|---|---|---|---|---|
| 1777641834 | 17.22° C | 93% | 1006.3 hPa | 0.51 mm | - | 12 W/m² | - |
| 1777641774 | 17.22° C | 93% | 1006.4 hPa | 0.51 mm | - | 9 W/m² | - |
| 1777641714 | 17.22° C | 93% | 1006.4 hPa | 0.51 mm | - | 9 W/m² | - |
| 1777641655 | 17.22° C | 93% | 1006.5 hPa | 0.51 mm | - | 9 W/m² | - |
| 1777641595 | 17.22° C | 93% | 1006.7 hPa | 0.51 mm | - | 7 W/m² | - |
| 1777641537 | 17.22° C | 93% | 1006.8 hPa | 0.51 mm | - | 7 W/m² | - |
| 1777641474 | 17.22° C | 93% | 1006.9 hPa | 0.51 mm | - | 7 W/m² | - |
| 1777641416 | 17.22° C | 93% | 1007 hPa | 0.51 mm | - | 5 W/m² | - |
| 1777641355 | 17.22° C | 93% | 1006.9 hPa | 0.51 mm | - | 5 W/m² | - |
| 1777641296 | 17.22° C | 93% | 1006.8 hPa | 0.51 mm | - | 7 W/m² | - |
| 1777641234 | 17.22° C | 93% | 1006.7 hPa | 0.51 mm | - | 7 W/m² | - |
| 1777641176 | 17.22° C | 93% | 1006.5 hPa | 0.51 mm | - | 7 W/m² | - |
| 1777641116 | 17.22° C | 93% | 1006.6 hPa | 0.51 mm | - | 7 W/m² | - |
| 1777641055 | 17.22° C | 93% | 1006.6 hPa | 0.51 mm | - | 5 W/m² | - |
| 1777640995 | 17.22° C | 93% | 1006.7 hPa | 0.51 mm | - | 0 W/m² | - |
| 1777640936 | 17.22° C | 93% | 1006.9 hPa | 0.51 mm | - | 0 W/m² | - |
| 1777640874 | 17.22° C | 93% | 1006.6 hPa | 0.51 mm | - | 5 W/m² | - |
| 1777640814 | 17.22° C | 93% | 1006.5 hPa | 0.51 mm | - | 0 W/m² | - |
| 1777640755 | 17.22° C | 93% | 1006.4 hPa | 0.51 mm | - | 5 W/m² | - |
| 1777640695 | 17.22° C | 93% | 1006.2 hPa | 0.51 mm | - | 5 W/m² | - |
| 1777640635 | 17.22° C | 93% | 1006.1 hPa | 0.51 mm | - | 5 W/m² | - |
| 1777640574 | 17.22° C | 93% | 1006.1 hPa | 0.51 mm | - | 5 W/m² | - |
| 1777640514 | 17.22° C | 93% | 1006.1 hPa | 0.51 mm | - | 5 W/m² | - |
| 1777640456 | 17.22° C | 93% | 1006 hPa | 0.51 mm | - | 7 W/m² | - |
| 1777640396 | 17.22° C | 93% | 1005.9 hPa | 0.25 mm | - | 7 W/m² | - |
* Rain latest hour (hover to see other rain measurements)
** Current wind speed in m/s (hover to see current wind gust speed)